GW6002 Weather Reports


time (UTC)temp
C
wind
direction
speed
KPH
gust
KPH
rain 1hr
cm
rain 24hr
cm
rain mn
cm
humidity
%
barometer
mb
20260506122940 20 157 9.7 14.5 0.00 0.00 0.00 57 1005.6
20260506122437 19 101 9.7 12.9 0.00 0.00 0.00 58 1005.6
20260506121935 19 83 1.6 11.3 0.00 0.00 0.00 58 1005.7
20260506121432 19 77 14.5 22.5 0.00 0.00 0.00 57 1005.8
20260506120929 19 114 8.0 11.3 0.00 0.00 0.00 56 1005.8
20260506120426 20 113 1.6 16.1 0.00 0.00 0.00 57 1005.9
20260506115923 19 55 4.8 9.7 0.00 0.00 0.00 56 1005.9
20260506115421 19 136 9.7 14.5 0.00 0.00 0.00 57 1005.9
20260506114919 20 144 8.0 14.5 0.00 0.00 0.00 55 1006.0
20260506114416 20 91 0.0 6.4 0.00 0.00 0.00 56 1006.0
20260506113915 20 221 3.2 22.5 0.00 0.00 0.00 55 1005.7
20260506113412 19 115 4.8 14.5 0.00 0.00 0.00 57 1005.8
20260506112909 19 92 24.1 27.4 0.00 0.00 0.00 55 1005.9
20260506112407 18 49 3.2 14.5 0.00 0.00 0.00 57 1006.1
20260506111904 18 77 6.4 20.9 0.00 0.00 0.00 58 1006.1
20260506111402 18 84 1.6 14.5 0.00 0.00 0.00 56 1006.2
20260506110858 18 94 3.2 11.3 0.00 0.00 0.00 57 1006.5
20260506110356 18 111 9.7 16.1 0.00 0.00 0.00 57 1006.3
20260506105852 18 86 1.6 20.9 0.00 0.00 0.00 57 1006.5
20260506105349 18 116 3.2 11.3 0.00 0.00 0.00 57 1006.5
20260506104847 18 113 9.7 22.5 0.00 0.00 0.00 58 1006.4
20260506104344 18 146 6.4 14.5 0.00 0.00 0.00 57 1006.4
20260506103842 17 88 9.7 12.9 0.00 0.00 0.00 57 1006.5
20260506103339 17 75 9.7 20.9 0.00 0.00 0.00 58 1006.4
20260506102836 17 92 4.8 9.7 0.00 0.00 0.00 57 1006.8
20260506102334 17 75 9.7 12.9 0.00 0.00 0.00 58 1006.6
20260506101831 17 96 17.7 25.7 0.00 0.00 0.00 58 1006.6
20260506101327 17 46 11.3 14.5 0.00 0.00 0.00 57 1006.9
20260506100825 17 106 8.0 14.5 0.00 0.00 0.00 58 1006.8
20260506100323 17 104 11.3 22.5 0.00 0.00 0.00 57 1006.8
20260506095821 17 41 4.8 6.4 0.00 0.00 0.00 58 1006.8
20260506095318 16 90 3.2 11.3 0.00 0.00 0.00 59 1006.9
20260506094815 16 72 9.7 14.5 0.00 0.00 0.00 59 1006.9
20260506094314 16 71 1.6 11.3 0.00 0.00 0.00 60 1006.8
20260506093811 16 116 12.9 17.7 0.00 0.00 0.00 59 1006.7
20260506093308 16 73 16.1 20.9 0.00 0.00 0.00 59 1007.0
20260506092806 16 146 12.9 17.7 0.00 0.00 0.00 59 1007.2
20260506092306 16 113 9.7 16.1 0.00 0.00 0.00 59 1006.9
20260506091801 16 125 17.7 27.4 0.00 0.00 0.00 60 1006.6
20260506091258 16 41 6.4 30.6 0.00 0.00 0.00 61 1006.7
20260506090756 16 138 12.9 16.1 0.00 0.00 0.00 60 1006.7
20260506090253 15 34 16.1 22.5 0.00 0.00 0.00 61 1006.6
20260506085749 15 31 4.8 20.9 0.00 0.00 0.00 62 1006.8
20260506085246 16 59 20.9 29.0 0.00 0.00 0.00 61 1006.6
20260506084742 15 28 17.7 22.5 0.00 0.00 0.00 63 1006.5
20260506084238 15 78 8.0 17.7 0.00 0.00 0.00 62 1006.8
20260506083736 15 60 3.2 12.9 0.00 0.00 0.00 64 1006.6
20260506083233 15 48 11.3 20.9 0.00 0.00 0.00 62 1006.8
20260506082731 15 40 14.5 22.5 0.00 0.00 0.00 63 1007.1
20260506082226 15 35 12.9 22.5 0.00 0.00 0.00 64 1007.1
20260506081724 15 98 9.7 24.1 0.00 0.00 0.00 63 1006.9
20260506081221 15 93 8.0 12.9 0.00 0.00 0.00 64 1007.1
20260506080719 15 39 3.2 12.9 0.00 0.00 0.00 65 1007.1
20260506080215 15 91 4.8 9.7 0.00 0.00 0.00 66 1007.1
20260506073159 13 94 6.4 17.7 0.00 0.00 0.00 69 1007.3
20260506072656 13 70 8.0 24.1 0.00 0.00 0.00 70 1007.3
20260506072154 13 27 19.3 25.7 0.00 0.00 0.00 71 1007.5
20260506071651 13 47 14.5 16.1 0.00 0.00 0.00 71 1007.5
20260506071148 13 38 9.7 24.1 0.00 0.00 0.00 72 1007.4
20260506070645 13 44 4.8 12.9 0.00 0.00 0.00 72 1007.3
20260506070142 12 52 8.0 17.7 0.00 0.00 0.00 72 1007.5
20260506062120 12 43 8.0 16.1 0.00 0.00 0.00 76 1007.7
20260506061615 12 43 12.9 20.9 0.00 0.00 0.00 78 1007.4
20260506061113 12 99 1.6 11.3 0.00 0.00 0.00 77 1007.6
20260506060612 11 37 16.1 22.5 0.00 0.00 0.00 78 1007.6
20260506060108 11 37 12.9 16.1 0.00 0.00 0.00 78 1007.6
20260506051040 10 39 12.9 14.5 0.00 0.00 0.00 81 1008.0
20260506050538 10 48 6.4 11.3 0.00 0.00 0.00 81 1008.1
20260506045029 10 51 9.7 14.5 0.00 0.00 0.00 81 1007.9
20260506044526 10 42 4.8 20.9 0.00 0.00 0.00 82 1007.9
20260506044023 10 28 17.7 22.5 0.00 0.00 0.00 81 1007.8
20260506043520 10 77 9.7 27.4 0.00 0.00 0.00 82 1007.9
20260506043019 10 32 14.5 22.5 0.00 0.00 0.00 82 1007.9
20260506042517 10 33 12.9 14.5 0.00 0.00 0.00 82 1008.0
20260506042015 10 32 12.9 16.1 0.00 0.00 0.00 81 1008.0
20260506041513 10 31 14.5 16.1 0.00 0.00 0.00 81 1007.9
20260506041010 10 54 6.4 9.7 0.00 0.00 0.00 82 1007.9
20260506040508 10 40 3.2 11.3 0.00 0.00 0.00 83 1008.1
20260506040003 10 44 1.6 11.3 0.00 0.00 0.00 84 1008.0
20260506035500 10 43 4.8 11.3 0.00 0.00 0.00 83 1008.2
20260506034957 10 47 4.8 11.3 0.00 0.00 0.00 83 1008.2
20260506034455 9 36 9.7 14.5 0.00 0.00 0.00 84 1008.0
20260506033951 9 45 9.7 16.1 0.00 0.00 0.00 84 1008.0
20260506033449 9 46 3.2 12.9 0.00 0.00 0.00 85 1008.0
20260506032945 9 41 6.4 12.9 0.00 0.00 0.00 85 1008.2
20260506032443 9 44 3.2 14.5 0.00 0.00 0.00 84 1008.1
20260506031939 9 36 9.7 12.9 0.00 0.00 0.00 84 1008.1
20260506031436 9 37 8.0 14.5 0.00 0.00 0.00 85 1007.9
20260506030934 9 28 11.3 17.7 0.00 0.00 0.00 85 1007.9
20260506030432 9 43 6.4 9.7 0.00 0.00 0.00 85 1007.9
20260506025928 9 31 12.9 14.5 0.00 0.00 0.00 85 1008.1
20260506025425 9 40 8.0 16.1 0.00 0.00 0.00 86 1007.7
20260506024922 9 29 9.7 14.5 0.00 0.00 0.00 86 1007.9
20260506024419 9 33 9.7 16.1 0.00 0.00 0.00 86 1007.9
20260506023915 9 29 12.9 14.5 0.00 0.00 0.00 86 1007.8
20260506023412 9 31 12.9 12.9 0.00 0.00 0.00 86 1007.9
20260506022908 9 29 9.7 12.9 0.00 0.00 0.00 86 1007.8
20260506022407 9 27 9.7 14.5 0.00 0.00 0.00 85 1007.6
20260506021904 9 29 12.9 14.5 0.00 0.00 0.00 85 1007.8
20260506021401 9 39 4.8 14.5 0.00 0.00 0.00 85 1007.5
20260506020858 9 62 3.2 4.8 0.00 0.00 0.00 85 1007.7
20260506020356 9 42 4.8 11.3 0.00 0.00 0.00 85 1007.7
20260506015853 10 43 8.0 16.1 0.00 0.00 0.00 84 1007.4
20260506015350 10 36 6.4 14.5 0.00 0.00 0.00 85 1007.5
20260506014847 10 33 8.0 11.3 0.00 0.00 0.00 85 1007.5
20260506014344 10 42 9.7 14.5 0.00 0.00 0.00 85 1007.6
20260506013840 10 29 14.5 20.9 0.00 0.00 0.00 85 1007.5
20260506013338 10 27 14.5 17.7 0.00 0.00 0.00 85 1007.7
20260506012834 10 40 12.9 20.9 0.00 0.00 0.00 85 1007.6
20260506012332 10 24 11.3 17.7 0.00 0.00 0.00 85 1007.5
20260506011829 10 20 12.9 17.7 0.00 0.00 0.00 84 1007.5
20260506011325 10 9 19.3 22.5 0.00 0.00 0.00 83 1007.6
20260506010823 10 7 14.5 20.9 0.00 0.00 0.00 83 1007.6
20260506010320 10 356 11.3 16.1 0.00 0.00 0.00 83 1007.5
20260506005817 10 17 12.9 17.7 0.00 0.00 0.00 83 1007.6
20260506005314 10 3 9.7 16.1 0.00 0.00 0.00 82 1007.3
20260506004810 10 5 14.5 16.1 0.00 0.00 0.00 82 1007.5
20260506004308 10 355 9.7 14.5 0.00 0.00 0.00 82 1007.6
20260506003803 10 16 8.0 9.7 0.00 0.00 0.00 82 1007.3
20260506003300 10 12 6.4 9.7 0.00 0.00 0.00 82 1007.4
20260506002756 10 359 8.0 11.3 0.00 0.00 0.00 81 1007.4
20260506002253 10 6 8.0 9.7 0.00 0.00 0.00 81 1007.3
20260506001748 10 23 9.7 11.3 0.00 0.00 0.00 81 1007.0
20260506001246 11 28 9.7 11.3 0.00 0.00 0.00 81 1006.9
20260506000743 10 53 1.6 4.8 0.00 0.00 0.00 81 1006.9
20260506000240 11 38 3.2 9.7 0.00 0.00 0.00 81 1007.2
20260505235737 11 16 6.4 6.4 0.00 0.00 0.00 81 1007.4
20260505235235 11 22 8.0 9.7 0.00 0.00 0.00 80 1007.2
20260505234732 11 14 9.7 11.3 0.00 0.00 0.00 80 1007.3
20260505234229 11 7 6.4 6.4 0.00 0.00 0.00 80 1007.5
20260505233726 11 12 8.0 11.3 0.00 0.00 0.00 79 1007.3
20260505233224 11 32 8.0 14.5 0.00 0.00 0.00 79 1007.2
20260505232720 11 39 6.4 11.3 0.00 0.00 0.00 80 1007.1
20260505232218 11 54 3.2 9.7 0.00 0.00 0.00 82 1007.2
20260505231715 11 23 11.3 12.9 0.00 0.00 0.00 80 1007.6
20260505231214 11 359 8.0 11.3 0.00 0.00 0.00 80 1007.7
20260505230711 11 345 8.0 12.9 0.00 0.00 0.00 80 1007.5
20260505230208 11 356 8.0 9.7 0.00 0.00 0.00 80 1007.5
20260505225704 11 8 6.4 6.4 0.00 0.00 0.00 79 1007.2
20260505225201 11 351 6.4 9.7 0.00 0.00 0.00 80 1007.4
20260505224656 11 3 6.4 6.4 0.00 0.00 0.00 80 1007.3
20260505224154 11 18 6.4 9.7 0.00 0.00 0.00 80 1007.2
20260505223652 11 17 6.4 6.4 0.00 0.00 0.00 81 1007.0
20260505223147 11 4 8.0 9.7 0.00 0.00 0.00 81 1007.0
20260505222643 11 18 6.4 9.7 0.00 0.00 0.00 80 1007.1
20260505222140 11 18 6.4 11.3 0.00 0.00 0.00 81 1006.9
20260505221638 11 35 9.7 11.3 0.00 0.00 0.00 81 1006.9
20260505221134 11 22 9.7 11.3 0.00 0.00 0.00 80 1007.0
20260505220632 11 12 9.7 14.5 0.00 0.00 0.00 80 1007.2
20260505220129 12 10 11.3 11.3 0.00 0.00 0.00 80 1007.2
20260505215626 12 0 9.7 11.3 0.00 0.00 0.00 80 1007.2
20260505215125 11 352 9.7 11.3 0.00 0.00 0.00 81 1007.1
20260505214622 12 4 9.7 12.9 0.00 0.00 0.00 81 1006.9
20260505214119 12 9 9.7 12.9 0.00 0.00 0.00 81 1007.0
20260505213617 12 13 9.7 12.9 0.00 0.00 0.00 81 1007.1
20260505213113 12 20 14.5 14.5 0.00 0.00 0.00 81 1006.8
20260505212609 12 3 9.7 11.3 0.00 0.00 0.00 82 1007.2
20260505212107 12 21 11.3 14.5 0.00 0.00 0.00 81 1006.7
20260505211604 12 15 9.7 12.9 0.00 0.00 0.00 81 1007.0
20260505211101 12 13 11.3 14.5 0.00 0.00 0.00 81 1007.2
20260505210557 12 3 12.9 16.1 0.00 0.00 0.00 82 1006.9
20260505210055 12 355 11.3 11.3 0.00 0.00 0.00 82 1007.1
20260505205552 12 8 11.3 20.9 0.00 0.15 0.15 84 1006.9
20260505205050 12 341 12.9 12.9 0.00 0.15 0.15 85 1007.1
20260505204547 12 347 12.9 12.9 0.00 0.15 0.15 85 1007.1
20260505204044 13 8 14.5 16.1 0.00 0.15 0.15 86 1007.0
20260505203540 13 341 9.7 12.9 0.00 0.15 0.15 86 1007.1
20260505203038 13 325 11.3 17.7 0.00 0.15 0.15 85 1006.7
20260505202534 13 322 9.7 11.3 0.00 0.15 0.15 86 1006.7
20260505202030 13 19 6.4 9.7 0.00 0.15 0.15 84 1006.1
20260505201527 13 39 3.2 9.7 0.00 0.15 0.15 84 1005.9
20260505201024 13 55 1.6 4.8 0.00 0.15 0.15 84 1006.0
20260505200522 13 52 3.2 9.7 0.00 0.15 0.15 85 1006.0
20260505200019 13 37 6.4 12.9 0.00 0.15 0.15 85 1005.8
20260505195515 13 28 12.9 20.9 0.00 0.15 0.15 85 1005.8
20260505195012 13 28 14.5 17.7 0.00 0.15 0.15 85 1006.1
20260505194510 14 13 12.9 20.9 0.00 0.15 0.15 86 1006.1
20260505194010 14 19 16.1 20.9 0.00 0.15 0.15 91 1006.1
20260505193508 14 22 14.5 16.1 0.00 0.15 0.15 91 1006.6
20260505193004 14 22 9.7 12.9 0.00 0.15 0.15 91 1006.6
20260505192503 14 285 11.3 14.5 0.00 0.15 0.15 94 1007.5
20260505192000 13 272 17.7 22.5 0.00 0.15 0.15 94 1007.7
20260505191458 13 323 6.4 6.4 0.00 0.15 0.15 94 1006.3
20260505190955 14 92 0.0 3.2 0.00 0.15 0.15 93 1005.9
20260505190450 14 92 3.2 4.8 0.00 0.15 0.15 93 1006.0
20260505185946 14 127 0.0 0.0 0.00 0.15 0.15 93 1006.0
20260505185444 14 127 0.0 0.0 0.00 0.15 0.15 93 1006.1
20260505184939 14 126 1.6 3.2 0.00 0.15 0.15 94 1006.2
20260505184437 14 155 3.2 3.2 0.00 0.15 0.15 94 1006.4
20260505183933 15 184 1.6 3.2 0.00 0.15 0.15 93 1006.2
20260505183430 15 145 3.2 3.2 0.00 0.15 0.15 93 1006.4
20260505182927 15 145 3.2 4.8 0.00 0.15 0.15 93 1006.4
20260505182424 15 145 1.6 3.2 0.00 0.15 0.15 93 1006.4
20260505181920 14 60 0.0 0.0 0.00 0.15 0.15 92 1006.7
20260505181417 14 60 1.6 1.6 0.00 0.15 0.15 92 1006.5
20260505180914 14 58 0.0 1.6 0.00 0.15 0.15 91 1006.4
20260505180411 15 58 6.4 6.4 0.00 0.15 0.15 90 1006.1
20260505175907 15 59 0.0 0.0 0.00 0.15 0.15 91 1006.3
20260505175403 15 59 0.0 0.0 0.00 0.15 0.15 91 1006.2
20260505174900 15 59 1.6 3.2 0.13 0.15 0.15 91 1006.2
20260505174358 15 59 0.0 0.0 0.13 0.15 0.15 90 1006.3
20260505173854 15 58 0.0 0.0 0.00 0.13 0.13 90 1006.5
20260505173350 15 58 0.0 0.0 0.00 0.13 0.13 89 1006.5
20260505172847 15 58 0.0 1.6 0.00 0.13 0.13 88 1006.4
20260505172345 15 57 0.0 1.6 0.00 0.13 0.13 88 1006.2
20260505171844 15 59 1.6 4.8 0.00 0.13 0.13 88 1006.7
20260505171341 15 92 0.0 0.0 0.00 0.13 0.13 88 1006.6
20260505170838 15 149 1.6 3.2 0.00 0.13 0.13 86 1006.6
20260505170335 16 191 0.0 0.0 0.00 0.13 0.13 85 1007.0
20260505165830 16 191 0.0 3.2 0.00 0.13 0.13 85 1006.8
20260505165326 16 191 1.6 3.2 0.00 0.13 0.13 85 1007.0
20260505164822 16 172 1.6 3.2 0.00 0.13 0.13 86 1006.7
20260505164319 16 139 0.0 0.0 0.00 0.13 0.13 85 1006.8
20260505163817 16 139 0.0 1.6 0.00 0.13 0.13 83 1006.6
20260505163316 16 139 0.0 0.0 0.00 0.13 0.13 81 1006.8
20260505162814 16 139 0.0 1.6 0.00 0.13 0.13 81 1006.7
20260505162309 16 139 1.6 3.2 0.00 0.13 0.13 75 1006.8
20260505161807 16 359 0.0 0.0 0.00 0.13 0.13 74 1006.7
20260505161304 16 359 1.6 3.2 0.00 0.13 0.13 73 1006.5
20260505160801 17 347 4.8 4.8 0.00 0.13 0.13 73 1006.7
20260505160259 17 345 6.4 9.7 0.00 0.13 0.13 73 1006.7
20260505153238 16 3 9.7 9.7 0.00 0.13 0.13 80 1006.6
20260505152735 16 41 3.2 4.8 0.00 0.13 0.13 82 1006.4
20260505152231 15 42 4.8 4.8 0.00 0.13 0.13 82 1007.0
20260505151726 16 89 0.0 4.8 0.00 0.13 0.13 82 1006.5
20260505151223 16 30 0.0 3.2 0.30 0.13 0.13 76 1006.7
20260505150720 17 340 4.8 9.7 0.43 0.10 0.10 70 1007.1
20260505150217 17 290 12.9 17.7 0.30 0.05 0.05 66 1007.0
20260505140645 20 328 9.7 12.9 0.00 0.00 0.00 51 1006.9
20260505140142 20 320 11.3 16.1 0.00 0.00 0.00 51 1007.1
20260505130106 21 307 9.7 14.5 0.00 0.00 0.00 47 1007.4
20260505124555 21 265 16.1 17.7 0.00 0.00 0.00 46 1007.8
20260505124051 21 305 14.5 16.1 0.00 0.00 0.00 47 1007.9
20260505123548 21 249 3.2 6.4 0.00 0.00 0.00 47 1007.8